Station Historical Data
Daily Summary for January 9, 2017 Units:  English    Metric   Both
« Previous Day
Next Day »
Daily Weekly Monthly Yearly Custom
  High: Low: Average:
Temperature: 43.0 °F 23.9 °F 31.7 °F
Dew Point: 18.8 °F 8.4 °F 13.7 °F
Humidity: 68% 25% 50%
Wind Speed: 10.4mph 10.4mph 10.4mph
Wind Gust: 10.4mph - -
Wind- - South
Pressure: 30.78 in 30.60 in -
Precipitation: 0.09 in    
Historical Graphs
 
 
Tabular Data for January 9, 2017
Time Temperature Dew Point Pressure Wind Wind Speed Wind Gust Humidity Rainfall Rate (Hourly) Conditions
00:04 24.4 °F 12.5 °F 30.74 in NNE 10.4 mph   60% 0.00 in
00:09 24.4 °F 12.1 °F 30.74 in NNE 10.4 mph   59% 0.00 in
00:15 24.4 °F 12.9 °F 30.74 in NNE 10.4 mph   61% 0.00 in
00:20 24.4 °F 12.5 °F 30.74 in NNE 10.4 mph   60% 0.00 in
00:25 24.4 °F 12.9 °F 30.73 in NNE 10.4 mph   61% 0.00 in
00:30 24.4 °F 12.9 °F 30.73 in NNE 10.4 mph   61% 0.00 in
00:35 24.3 °F 13.1 °F 30.73 in NNE 10.4 mph   62% 0.00 in
00:40 24.3 °F 13.1 °F 30.74 in NNE 10.4 mph   62% 0.00 in
00:45 24.3 °F 12.8 °F 30.74 in NNE 10.4 mph   61% 0.00 in
00:50 24.3 °F 13.1 °F 30.74 in NNE 10.4 mph   62% 0.00 in
00:55 24.3 °F 13.1 °F 30.74 in NNE 10.4 mph   62% 0.00 in
01:00 24.3 °F 13.5 °F 30.75 in NNE 10.4 mph   63% 0.00 in
01:05 24.3 °F 13.1 °F 30.74 in NNE 10.4 mph   62% 0.00 in
01:10 24.3 °F 13.5 °F 30.74 in NNE 10.4 mph   63% 0.00 in
01:16 24.3 °F 13.9 °F 30.74 in NNE 10.4 mph   64% 0.00 in
01:21 24.3 °F 13.9 °F 30.74 in NNE 10.4 mph   64% 0.00 in
01:26 24.4 °F 14.0 °F 30.73 in NNE 10.4 mph   64% 0.00 in
01:31 24.4 °F 14.3 °F 30.73 in NNE 10.4 mph   65% 0.00 in
01:36 24.5 °F 14.1 °F 30.73 in NNE 10.4 mph   64% 0.00 in
01:41 24.4 °F 14.3 °F 30.73 in NNE 10.4 mph   65% 0.00 in
01:46 24.4 °F 14.0 °F 30.73 in NNE 10.4 mph   64% 0.00 in
01:51 24.4 °F 14.3 °F 30.74 in NNE 10.4 mph   65% 0.00 in
01:56 24.4 °F 14.7 °F 30.73 in NNE 10.4 mph   66% 0.00 in
02:01 24.4 °F 15.0 °F 30.73 in NNE 10.4 mph   67% 0.00 in
02:06 24.4 °F 14.7 °F 30.73 in NNE 10.4 mph   66% 0.00 in
02:12 24.4 °F 15.0 °F 30.73 in NNE 10.4 mph   67% 0.00 in
02:17 24.3 °F 14.9 °F 30.73 in NNE 10.4 mph   67% 0.00 in
02:22 24.3 °F 14.9 °F 30.74 in NNE 10.4 mph   67% 0.00 in
02:27 24.3 °F 15.3 °F 30.73 in NNE 10.4 mph   68% 0.00 in
02:32 24.2 °F 15.2 °F 30.73 in NNE 10.4 mph   68% 0.00 in
02:37 24.2 °F 15.2 °F 30.73 in NNE 10.4 mph   68% 0.00 in
02:42 24.2 °F 15.2 °F 30.73 in NNE 10.4 mph   68% 0.00 in
02:47 24.2 °F 15.2 °F 30.73 in North 10.4 mph   68% 0.00 in
02:52 24.2 °F 15.2 °F 30.72 in North 10.4 mph   68% 0.00 in
02:58 23.9 °F 14.9 °F 30.72 in NNW 10.4 mph   68% 0.00 in
03:03 23.9 °F 14.9 °F 30.73 in NNW 10.4 mph   68% 0.00 in
03:08 23.9 °F 14.9 °F 30.72 in NNE 10.4 mph   68% 0.00 in
03:13 23.9 °F 14.9 °F 30.72 in North 10.4 mph   68% 0.00 in
03:18 23.9 °F 14.9 °F 30.72 in North 10.4 mph   68% 0.00 in
03:23 23.9 °F 14.9 °F 30.72 in North 10.4 mph   68% 0.00 in
03:28 23.9 °F 14.9 °F 30.73 in North 10.4 mph   68% 0.00 in
03:33 23.9 °F 14.9 °F 30.73 in North 10.4 mph   68% 0.00 in
03:38 23.9 °F 14.9 °F 30.73 in North 10.4 mph   68% 0.00 in
03:43 23.9 °F 14.9 °F 30.73 in North 10.4 mph   68% 0.00 in
03:48 23.9 °F 14.9 °F 30.73 in North 10.4 mph   68% 0.00 in
03:53 23.9 °F 14.9 °F 30.73 in North 10.4 mph   68% 0.00 in
03:58 23.9 °F 14.9 °F 30.72 in North 10.4 mph   68% 0.00 in
04:03 23.9 °F 14.9 °F 30.73 in North 10.4 mph   68% 0.00 in
04:08 23.9 °F 14.9 °F 30.73 in North 10.4 mph   68% 0.00 in
04:13 23.9 °F 14.9 °F 30.73 in North 10.4 mph   68% 0.00 in
04:19 23.9 °F 14.9 °F 30.73 in North 10.4 mph   68% 0.00 in
04:24 23.9 °F 14.9 °F 30.74 in North 10.4 mph   68% 0.00 in
04:29 23.9 °F 14.9 °F 30.74 in North 10.4 mph   68% 0.00 in
04:34 23.9 °F 14.9 °F 30.74 in North 10.4 mph   68% 0.00 in
04:39 23.9 °F 14.9 °F 30.74 in North 10.4 mph   68% 0.00 in
04:44 23.9 °F 14.9 °F 30.74 in North 10.4 mph   68% 0.00 in
04:49 23.9 °F 14.9 °F 30.75 in North 10.4 mph   68% 0.00 in
04:54 23.9 °F 14.9 °F 30.75 in North 10.4 mph   68% 0.00 in
04:59 23.9 °F 14.9 °F 30.75 in North 10.4 mph   68% 0.00 in
05:04 23.9 °F 14.9 °F 30.75 in North 10.4 mph   68% 0.00 in
05:09 23.9 °F 14.9 °F 30.75 in North 10.4 mph   68% 0.00 in
05:15 23.9 °F 14.9 °F 30.75 in North 10.4 mph   68% 0.00 in
05:20 23.9 °F 14.9 °F 30.75 in North 10.4 mph   68% 0.00 in
05:25 23.9 °F 14.9 °F 30.75 in North 10.4 mph   68% 0.00 in
05:30 23.9 °F 14.9 °F 30.75 in North 10.4 mph   68% 0.00 in
05:35 23.9 °F 14.9 °F 30.75 in North 10.4 mph   68% 0.00 in
05:40 23.9 °F 14.9 °F 30.75 in North 10.4 mph   68% 0.00 in
05:45 23.9 °F 14.9 °F 30.75 in North 10.4 mph   68% 0.00 in
05:50 23.9 °F 14.9 °F 30.75 in North 10.4 mph   68% 0.00 in
05:55 23.9 °F 14.9 °F 30.75 in North 10.4 mph   68% 0.00 in
06:00 23.9 °F 14.9 °F 30.76 in North 10.4 mph   68% 0.00 in
06:05 23.9 °F 14.9 °F 30.75 in North 10.4 mph   68% 0.00 in
06:10 23.9 °F 14.9 °F 30.75 in North 10.4 mph   68% 0.00 in
06:15 23.9 °F 14.9 °F 30.75 in North 10.4 mph   68% 0.00 in
06:20 23.9 °F 14.9 °F 30.76 in North 10.4 mph   68% 0.00 in
06:25 23.9 °F 14.9 °F 30.76 in North 10.4 mph   68% 0.00 in
06:30 23.9 °F 14.9 °F 30.76 in North 10.4 mph   68% 0.00 in
06:36 23.9 °F 14.9 °F 30.76 in North 10.4 mph   68% 0.00 in
06:41 23.9 °F 14.9 °F 30.76 in North 10.4 mph   68% 0.00 in
06:46 23.9 °F 14.9 °F 30.76 in North 10.4 mph   68% 0.00 in
06:51 23.9 °F 14.9 °F 30.76 in North 10.4 mph   68% 0.00 in
06:56 23.9 °F 14.9 °F 30.76 in North 10.4 mph   68% 0.00 in
07:01 23.9 °F 14.9 °F 30.77 in North 10.4 mph   68% 0.00 in CLR
07:06 23.9 °F 14.9 °F 30.77 in North 10.4 mph   68% 0.00 in CLR
07:11 23.9 °F 14.9 °F 30.77 in North 10.4 mph   68% 0.00 in CLR
07:16 23.9 °F 14.9 °F 30.77 in North 10.4 mph   68% 0.00 in CLR
07:21 23.9 °F 14.9 °F 30.77 in North 10.4 mph   68% 0.00 in CLR
07:26 23.9 °F 14.9 °F 30.77 in North 10.4 mph   68% 0.00 in CLR
07:32 23.9 °F 14.9 °F 30.77 in North 10.4 mph   68% 0.00 in CLR
07:37 23.9 °F 14.9 °F 30.77 in North 10.4 mph   68% 0.00 in CLR
07:42 23.9 °F 14.9 °F 30.77 in North 10.4 mph   68% 0.00 in CLR
07:47 23.9 °F 14.9 °F 30.77 in North 10.4 mph   68% 0.00 in CLR
07:52 23.9 °F 14.9 °F 30.77 in North 10.4 mph   68% 0.00 in CLR
07:57 23.9 °F 14.9 °F 30.77 in North 10.4 mph   68% 0.00 in CLR
08:02 23.9 °F 14.9 °F 30.77 in North 10.4 mph   68% 0.00 in CLR
08:07 23.9 °F 14.9 °F 30.78 in North 10.4 mph   68% 0.00 in CLR
08:12 23.9 °F 14.9 °F 30.77 in North 10.4 mph   68% 0.00 in CLR
08:17 23.9 °F 14.9 °F 30.77 in North 10.4 mph   68% 0.00 in CLR
08:22 23.9 °F 14.9 °F 30.77 in North 10.4 mph   68% 0.00 in CLR
08:27 23.9 °F 14.9 °F 30.78 in North 10.4 mph   68% 0.00 in CLR
08:32 23.9 °F 14.9 °F 30.77 in North 10.4 mph   68% 0.00 in CLR
08:37 23.9 °F 14.9 °F 30.78 in North 10.4 mph   68% 0.00 in CLR
08:42 23.9 °F 14.9 °F 30.77 in North 10.4 mph   68% 0.00 in CLR
08:47 23.9 °F 14.9 °F 30.77 in North 10.4 mph   68% 0.00 in CLR
08:53 23.9 °F 14.9 °F 30.77 in North 10.4 mph   68% 0.00 in CLR
08:58 23.9 °F 14.9 °F 30.77 in North 10.4 mph   68% 0.00 in CLR
09:03 23.9 °F 14.9 °F 30.77 in North 10.4 mph   68% 0.00 in OVC
09:08 23.9 °F 14.9 °F 30.78 in North 10.4 mph   68% 0.00 in OVC
09:13 23.9 °F 14.9 °F 30.77 in North 10.4 mph   68% 0.00 in OVC
09:18 23.9 °F 14.9 °F 30.77 in North 10.4 mph   68% 0.00 in OVC
09:23 23.9 °F 14.9 °F 30.77 in North 10.4 mph   68% 0.00 in OVC
09:28 29.0 °F 14.4 °F 30.78 in WNW 10.4 mph   54% 0.00 in OVC
09:33 29.8 °F 14.7 °F 30.78 in NW 10.4 mph 10.4 mph 53% 0.00 in OVC
09:38 30.8 °F 14.3 °F 30.78 in NNW 10.4 mph 10.4 mph 50% 0.00 in OVC
09:43 30.9 °F 14.0 °F 30.78 in West 10.4 mph 10.4 mph 49% 0.00 in OVC
09:48 31.0 °F 14.0 °F 30.78 in WNW 10.4 mph   49% 0.00 in OVC
09:54 31.5 °F 13.6 °F 30.78 in SSW 10.4 mph 10.4 mph 47% 0.00 in OVC
09:59 31.6 °F 13.2 °F 30.78 in North 10.4 mph 10.4 mph 46% 0.00 in OVC
10:04 31.6 °F 12.7 °F 30.78 in NW 10.4 mph 10.4 mph 45% 0.00 in OVC
10:09 31.8 °F 12.8 °F 30.78 in West 10.4 mph 10.4 mph 45% 0.00 in OVC
10:14 31.8 °F 13.3 °F 30.78 in WNW 10.4 mph 10.4 mph 46% 0.00 in OVC
10:19 32.0 °F 13.5 °F 30.78 in WNW 10.4 mph 10.4 mph 46% 0.00 in OVC
10:24 32.2 °F 12.2 °F 30.78 in WNW 10.4 mph 10.4 mph 43% 0.00 in OVC
10:29 32.2 °F 13.2 °F 30.78 in WNW 10.4 mph 10.4 mph 45% 0.00 in OVC
10:34 32.9 °F 13.3 °F 30.78 in WNW 10.4 mph 10.4 mph 44% 0.00 in OVC
10:39 34.1 °F 14.4 °F 30.78 in WSW 10.4 mph 10.4 mph 44% 0.00 in OVC
10:44 34.5 °F 13.2 °F 30.78 in NW 10.4 mph 10.4 mph 41% 0.00 in OVC
10:49 35.0 °F 12.5 °F 30.77 in WNW 10.4 mph 10.4 mph 39% 0.00 in OVC
10:54 35.3 °F 14.5 °F 30.77 in WNW 10.4 mph 10.4 mph 42% 0.00 in OVC
10:59 35.5 °F 11.8 °F 30.77 in WNW 10.4 mph 10.4 mph 37% 0.00 in OVC
11:04 35.7 °F 14.8 °F 30.77 in NW 10.4 mph   42% 0.00 in OVC
11:09 36.5 °F 13.3 °F 30.77 in NW 10.4 mph   38% 0.00 in OVC
11:14 36.9 °F 12.4 °F 30.77 in WNW 10.4 mph 10.4 mph 36% 0.00 in OVC
11:19 37.2 °F 13.9 °F 30.77 in WNW 10.4 mph 10.4 mph 38% 0.00 in OVC
11:25 37.7 °F 14.3 °F 30.77 in NW 10.4 mph 10.4 mph 38% 0.00 in OVC
11:30 37.8 °F 13.8 °F 30.77 in West 10.4 mph 10.4 mph 37% 0.00 in OVC
11:35 38.3 °F 12.3 °F 30.76 in WNW 10.4 mph 10.4 mph 34% 0.00 in OVC
11:40 38.5 °F 13.8 °F 30.76 in NW 10.4 mph 10.4 mph 36% 0.00 in OVC
11:45 39.0 °F 14.9 °F 30.76 in WNW 10.4 mph 10.4 mph 37% 0.00 in OVC
11:50 39.0 °F 13.0 °F 30.76 in WNW 10.4 mph 10.4 mph 34% 0.00 in OVC
11:55 39.2 °F 13.8 °F 30.75 in NW 10.4 mph 10.4 mph 35% 0.00 in OVC
12:00 39.3 °F 13.2 °F 30.75 in WNW 10.4 mph 10.4 mph 34% 0.00 in OVC
12:05 39.6 °F 14.8 °F 30.75 in NW 10.4 mph 10.4 mph 36% 0.00 in OVC
12:10 39.9 °F 13.8 °F 30.75 in WNW 10.4 mph 10.4 mph 34% 0.00 in OVC
12:15 39.8 °F 13.7 °F 30.74 in West 10.4 mph 10.4 mph 34% 0.00 in OVC
12:21 39.6 °F 12.8 °F 30.74 in WNW 10.4 mph 10.4 mph 33% 0.00 in OVC
12:26 39.6 °F 11.4 °F 30.73 in North 10.4 mph 10.4 mph 31% 0.00 in OVC
12:31 39.9 °F 14.4 °F 30.73 in NNW 10.4 mph 10.4 mph 35% 0.00 in OVC
12:36 40.9 °F 14.0 °F 30.72 in WNW 10.4 mph 10.4 mph 33% 0.00 in OVC
12:41 41.1 °F 15.5 °F 30.72 in West 10.4 mph 10.4 mph 35% 0.00 in OVC
12:46 41.6 °F 13.9 °F 30.72 in West 10.4 mph 10.4 mph 32% 0.00 in OVC
12:51 41.6 °F 10.0 °F 30.72 in NW 10.4 mph 10.4 mph 27% 0.00 in OVC
12:56 41.1 °F 10.4 °F 30.71 in WNW 10.4 mph 10.4 mph 28% 0.00 in OVC
13:01 41.7 °F 11.7 °F 30.70 in NW 10.4 mph 10.4 mph 29% 0.00 in OVC
13:06 42.2 °F 11.4 °F 30.70 in NW 10.4 mph 10.4 mph 28% 0.00 in OVC
13:11 42.8 °F 13.5 °F 30.70 in NW 10.4 mph 10.4 mph 30% 0.00 in OVC
13:16 43.0 °F 12.9 °F 30.69 in WNW 10.4 mph 10.4 mph 29% 0.01 in OVC
13:21 43.0 °F 10.4 °F 30.68 in NW 10.4 mph 10.4 mph 26% 0.03 in RA
13:26 42.4 °F 10.7 °F 30.68 in West 10.4 mph 10.4 mph 27% 0.04 in RA
13:31 42.3 °F 10.6 °F 30.68 in NNW 10.4 mph 10.4 mph 27% 0.04 in OVC
13:36 42.4 °F 11.5 °F 30.67 in NNW 10.4 mph   28% 0.05 in OVC
13:42 42.1 °F 12.1 °F 30.67 in WNW 10.4 mph 10.4 mph 29% 0.05 in OVC
13:47 41.6 °F 10.0 °F 30.67 in NW 10.4 mph 10.4 mph 27% 0.06 in RA
13:52 41.1 °F 12.0 °F 30.66 in NW 10.4 mph 10.4 mph 30% 0.06 in OVC
13:57 41.1 °F 12.7 °F 30.66 in West 10.4 mph 10.4 mph 31% 0.06 in OVC
14:02 41.1 °F 11.2 °F 30.66 in North 10.4 mph 10.4 mph 29% 0.06 in OVC
14:07 40.9 °F 10.2 °F 30.66 in WNW 10.4 mph 10.4 mph 28% 0.06 in OVC
14:12 40.9 °F 9.4 °F 30.65 in NW 10.4 mph 10.4 mph 27% 0.05 in OVC
14:17 40.7 °F 10.1 °F 30.65 in NW 10.4 mph   28% 0.04 in OVC
14:22 40.9 °F 10.2 °F 30.65 in West 10.4 mph 10.4 mph 28% 0.03 in OVC
14:27 40.8 °F 10.9 °F 30.65 in NW 10.4 mph 10.4 mph 29% 0.03 in RA
14:32 40.9 °F 10.2 °F 30.65 in NW 10.4 mph 10.4 mph 28% 0.03 in OVC
14:37 40.9 °F 10.2 °F 30.65 in NNE 10.4 mph 10.4 mph 28% 0.02 in OVC
14:43 41.1 °F 10.4 °F 30.65 in NW 10.4 mph   28% 0.02 in OVC
14:48 41.4 °F 10.7 °F 30.64 in NW 10.4 mph 10.4 mph 28% 0.01 in OVC
14:53 41.7 °F 10.1 °F 30.65 in WNW 10.4 mph 10.4 mph 27% 0.01 in OVC
14:58 42.1 °F 11.3 °F 30.64 in NW 10.4 mph 10.4 mph 28% 0.01 in OVC
15:03 42.3 °F 11.5 °F 30.64 in NW 10.4 mph   28% 0.01 in OVC
15:08 42.2 °F 12.9 °F 30.64 in WNW 10.4 mph 10.4 mph 30% 0.01 in OVC
15:13 41.9 °F 8.6 °F 30.64 in NW 10.4 mph 10.4 mph 25% 0.01 in OVC
15:18 41.9 °F 10.3 °F 30.64 in WNW 10.4 mph 10.4 mph 27% 0.02 in RA
15:23 42.0 °F 13.5 °F 30.64 in WNW 10.4 mph   31% 0.02 in OVC
15:28 42.0 °F 12.0 °F 30.63 in WNW 10.4 mph 10.4 mph 29% 0.01 in OVC
15:34 42.0 °F 11.2 °F 30.64 in NW 10.4 mph 10.4 mph 28% 0.01 in OVC
15:39 42.0 °F 10.4 °F 30.63 in NW 10.4 mph   27% 0.01 in OVC
15:44 42.0 °F 10.4 °F 30.63 in WNW 10.4 mph   27% 0.01 in OVC
15:49 42.2 °F 9.7 °F 30.63 in WNW 10.4 mph   26% 0.01 in OVC
15:54 42.1 °F 10.5 °F 30.62 in NE 10.4 mph 10.4 mph 27% 0.01 in OVC
15:59 42.0 °F 11.2 °F 30.63 in WSW 10.4 mph 10.4 mph 28% 0.01 in OVC
16:04 41.8 °F 11.0 °F 30.63 in WNW 10.4 mph 10.4 mph 28% 0.01 in CLR
16:09 41.7 °F 10.9 °F 30.63 in WNW 10.4 mph   28% 0.01 in CLR
16:14 41.7 °F 8.4 °F 30.63 in NNW 10.4 mph 10.4 mph 25% 0.01 in CLR
16:19 41.8 °F 8.5 °F 30.63 in NW 10.4 mph 10.4 mph 25% 0.00 in CLR
16:24 41.8 °F 10.2 °F 30.63 in NW 10.4 mph   27% 0.00 in CLR
16:30 41.7 °F 12.5 °F 30.63 in West 10.4 mph 10.4 mph 30% 0.00 in CLR
16:34 41.6 °F 10.9 °F 30.63 in NW 10.4 mph   28% 0.00 in CLR
16:40 41.5 °F 14.5 °F 30.63 in NW 10.4 mph   33% 0.00 in CLR
16:45 41.3 °F 9.8 °F 30.63 in NW 10.4 mph   27% 0.00 in CLR
16:50 41.3 °F 8.9 °F 30.63 in NNW 10.4 mph 10.4 mph 26% 0.00 in CLR
16:55 41.2 °F 8.8 °F 30.63 in North 10.4 mph   26% 0.00 in CLR
17:00 41.0 °F 9.5 °F 30.63 in NW 10.4 mph 10.4 mph 27% 0.00 in CLR
17:05 41.0 °F 11.1 °F 30.63 in WNW 10.4 mph 10.4 mph 29% 0.00 in CLR
17:10 40.8 °F 11.7 °F 30.62 in WNW 10.4 mph   30% 0.00 in CLR
17:15 40.6 °F 11.5 °F 30.62 in WNW 10.4 mph   30% 0.00 in CLR
17:20 40.4 °F 9.0 °F 30.61 in NW 10.4 mph 10.4 mph 27% 0.00 in CLR
17:25 40.4 °F 9.8 °F 30.62 in North 10.4 mph   28% 0.00 in CLR
17:30 40.1 °F 10.3 °F 30.62 in NNW 10.4 mph   29% 0.00 in CLR
17:35 39.9 °F 10.9 °F 30.62 in NNW 10.4 mph   30% 0.00 in CLR
17:40 39.6 °F 10.7 °F 30.61 in NNW 10.4 mph   30% 0.00 in CLR
17:45 39.2 °F 10.3 °F 30.61 in NNW 10.4 mph   30% 0.00 in CLR
17:51 38.9 °F 13.5 °F 30.62 in NNW 10.4 mph   35% 0.00 in CLR
17:56 38.5 °F 14.4 °F 30.62 in NNW 10.4 mph   37% 0.00 in CLR
18:01 38.1 °F 13.5 °F 30.62 in NNW 10.4 mph   36% 0.00 in
18:06 37.7 °F 15.5 °F 30.62 in NNW 10.4 mph   40% 0.00 in
18:11 37.2 °F 12.0 °F 30.62 in NNW 10.4 mph   35% 0.00 in
18:16 36.7 °F 11.6 °F 30.62 in NNW 10.4 mph   35% 0.00 in
18:21 36.4 °F 14.9 °F 30.62 in NNW 10.4 mph   41% 0.00 in
18:26 36.0 °F 14.5 °F 30.62 in NNW 10.4 mph   41% 0.00 in
18:31 35.8 °F 15.5 °F 30.62 in NNW 10.4 mph   43% 0.01 in
18:36 35.7 °F 13.7 °F 30.62 in NNW 10.4 mph   40% 0.01 in
18:41 35.6 °F 14.7 °F 30.62 in NNW 10.4 mph   42% 0.01 in
18:46 35.3 °F 14.5 °F 30.62 in NNW 10.4 mph   42% 0.01 in
18:51 35.0 °F 14.7 °F 30.62 in NNW 10.4 mph   43% 0.01 in
18:56 34.6 °F 14.9 °F 30.62 in NNW 10.4 mph   44% 0.01 in
19:01 34.3 °F 14.6 °F 30.63 in NNW 10.4 mph   44% 0.01 in
19:06 34.5 °F 15.3 °F 30.63 in NNW 10.4 mph   45% 0.01 in
19:12 34.3 °F 15.1 °F 30.63 in NNW 10.4 mph   45% 0.01 in
19:17 33.9 °F 14.8 °F 30.63 in NNW 10.4 mph   45% 0.01 in
19:22 33.6 °F 15.5 °F 30.63 in NNW 10.4 mph   47% 0.01 in
19:27 33.2 °F 13.6 °F 30.63 in NNW 10.4 mph   44% 0.01 in
19:32 32.9 °F 14.8 °F 30.63 in NNW 10.4 mph   47% 0.00 in
19:37 32.6 °F 15.1 °F 30.62 in NNW 10.4 mph   48% 0.00 in
19:42 32.4 °F 14.9 °F 30.63 in NNW 10.4 mph   48% 0.00 in
19:47 32.7 °F 16.1 °F 30.63 in North 10.4 mph 10.4 mph 50% 0.00 in
19:53 33.2 °F 15.1 °F 30.63 in North 10.4 mph   47% 0.00 in
19:58 33.5 °F 17.3 °F 30.63 in North 10.4 mph   51% 0.00 in
20:03 33.3 °F 16.2 °F 30.64 in North 10.4 mph   49% 0.00 in
20:08 33.1 °F 16.0 °F 30.63 in North 10.4 mph   49% 0.00 in
20:13 32.9 °F 15.8 °F 30.63 in North 10.4 mph   49% 0.00 in
20:18 33.2 °F 16.1 °F 30.63 in North 10.4 mph   49% 0.00 in
20:23 33.2 °F 16.5 °F 30.64 in North 10.4 mph   50% 0.00 in
20:28 33.2 °F 15.1 °F 30.64 in North 10.4 mph   47% 0.00 in
20:33 33.3 °F 18.4 °F 30.63 in North 10.4 mph   54% 0.00 in
20:38 32.8 °F 18.8 °F 30.63 in NNW 10.4 mph   56% 0.00 in
20:43 32.4 °F 18.4 °F 30.62 in NNW 10.4 mph   56% 0.00 in
20:48 32.1 °F 16.9 °F 30.62 in NNW 10.4 mph   53% 0.00 in
20:53 32.1 °F 14.6 °F 30.62 in NNW 10.4 mph   48% 0.00 in
20:58 32.2 °F 13.7 °F 30.63 in NNW 10.4 mph   46% 0.00 in
20:59 32.2 °F 13.7 °F 30.63 in NNW 10.4 mph   46% 0.00 in
21:04 32.3 °F 13.3 °F 30.63 in NNW 10.4 mph   45% 0.00 in
21:09 32.2 °F 13.2 °F 30.62 in NNW 10.4 mph   45% 0.00 in
21:14 32.2 °F 13.7 °F 30.62 in NNW 10.4 mph   46% 0.00 in
21:19 32.2 °F 14.2 °F 30.62 in NNW 10.4 mph   47% 0.00 in
21:24 32.3 °F 15.3 °F 30.63 in NNW 10.4 mph   49% 0.00 in
21:29 32.4 °F 14.9 °F 30.63 in NNW 10.4 mph   48% 0.00 in
21:35 32.3 °F 15.7 °F 30.63 in NNW 10.4 mph   50% 0.00 in
21:40 32.0 °F 16.3 °F 30.63 in NNW 10.4 mph   52% 0.00 in
21:45 31.9 °F 17.1 °F 30.63 in NNW 10.4 mph   54% 0.00 in
21:50 31.7 °F 17.4 °F 30.63 in NNW 10.4 mph   55% 0.00 in
21:55 31.3 °F 15.7 °F 30.62 in NNW 10.4 mph   52% 0.00 in
22:00 31.2 °F 16.9 °F 30.62 in NNW 10.4 mph   55% 0.00 in
22:05 31.1 °F 14.6 °F 30.63 in NNW 10.4 mph   50% 0.00 in
22:10 31.2 °F 14.7 °F 30.63 in NNW 10.4 mph   50% 0.00 in
22:15 31.3 °F 14.3 °F 30.63 in NNW 10.4 mph   49% 0.00 in
22:20 31.4 °F 13.9 °F 30.62 in NNW 10.4 mph   48% 0.00 in
22:25 31.5 °F 13.6 °F 30.62 in NNW 10.4 mph   47% 0.00 in
22:30 31.5 °F 13.6 °F 30.61 in NNW 10.4 mph   47% 0.00 in
22:35 31.4 °F 13.5 °F 30.62 in NNW 10.4 mph   47% 0.00 in
22:40 31.3 °F 13.4 °F 30.62 in NNW 10.4 mph   47% 0.00 in
22:45 31.2 °F 13.8 °F 30.62 in NNW 10.4 mph   48% 0.00 in
22:50 31.2 °F 12.8 °F 30.62 in NNW 10.4 mph   46% 0.00 in
22:56 31.3 °F 13.9 °F 30.62 in NNW 10.4 mph   48% 0.00 in
23:01 31.1 °F 13.7 °F 30.62 in NNW 10.4 mph   48% 0.00 in
23:06 30.9 °F 13.5 °F 30.62 in NNW 10.4 mph   48% 0.00 in
23:11 31.0 °F 14.5 °F 30.62 in NNW 10.4 mph   50% 0.00 in
23:16 31.3 °F 13.9 °F 30.62 in NNW 10.4 mph   48% 0.00 in
23:21 31.4 °F 15.3 °F 30.62 in NNW 10.4 mph   51% 0.00 in
23:26 31.3 °F 13.4 °F 30.62 in NNW 10.4 mph   47% 0.00 in
23:31 31.7 °F 13.3 °F 30.62 in NNW 10.4 mph   46% 0.00 in
23:36 31.8 °F 13.8 °F 30.61 in NNW 10.4 mph   47% 0.00 in
23:41 32.1 °F 13.1 °F 30.61 in NNW 10.4 mph   45% 0.00 in
23:46 32.2 °F 12.7 °F 30.61 in NNW 10.4 mph 10.4 mph 44% 0.00 in
23:51 32.2 °F 12.7 °F 30.61 in NNW 10.4 mph   44% 0.00 in
23:56 32.2 °F 12.7 °F 30.60 in NW 10.4 mph   44% 0.00 in
Piedmont Bend
Compliments of Weather Underground - 4 mb